sat.trackr.live / text

‹ back to catalog

KSM1-C

NORAD 46906 · 2020-081B

PAYLOAD ACTIVE UNKNOWN

§ Identity

Operator
Country
LUXE
Launch date
2020-11-07
Launch site
SRILR
Launch vehicle
Mass (kg)
RCS (m²)

External: N2YO · Heavens-Above · Gunter

§ Orbital elements

Epoch: 2026-09-20T04:54:58.887936Z

Period
94.23 min
Inclination
36.8913°
Eccentricity
0.0004447
Mean motion
15.28106921 rev/d
Perigee alt
478.4 km
Apogee alt
484.5 km
Semi-major
6,859.6 km
B*
2.2183e-4
RAAN
191.7036°
Arg perigee
288.2420°
Mean anomaly
71.7845°
Rev number
32,370

§ Raw data

KSM1-C1 46906U 20081B   26263.20484824  .00006130  00000+0  22183-3 0  99952 46906  36.8913 191.7036 0004447 288.2420  71.7845 15.28106921323701

JSON: /api/v1/satellites/46906 · /tle

For live sub-satellite position, see the globe view (requires WebGL).

§ Visibility from observer

Set your observer location to see the next 7 days of passes ≥ 10°. The values pass through the URL so the page stays shareable.

No JS? Fill the form by hand. The geolocation button needs JavaScript.

§ Radio — SatNOGS DB

ModeDescriptionDownlinkUplink
FSK AX.100 Mode 5 Mode U 401.120 MHz

1 transmitter · refreshed weekly from db.satnogs.org